﻿"﻿最高氣溫 (攝氏度) - �W�w"
"Maximum Temperature (°C) - Peng Chau"
年/Year,月/Month,日/Day,數值/Value,"數據完整性/data Completeness"
2024,1,1,24.1,C
2024,1,2,21.1,C
2024,1,3,22.4,C
2024,1,4,19.3,C
2024,1,5,23.0,C
2024,1,6,24.7,C
2024,1,7,21.3,C
2024,1,8,20.1,C
2024,1,9,24.8,C
2024,1,10,24.9,C
2024,1,11,23.3,C
2024,1,12,23.1,C
2024,1,13,21.2,C
2024,1,14,23.1,C
2024,1,15,26.7,C
2024,1,16,21.6,C
2024,1,17,20.4,C
2024,1,18,24.8,C
2024,1,19,24.7,C
2024,1,20,26.7,C
2024,1,21,21.1,C
2024,1,22,17.4,C
2024,1,23,9.7,C
2024,1,24,12.9,C
2024,1,25,15.0,C
2024,1,26,18.6,C
2024,1,27,18.5,C
2024,1,28,15.8,C
2024,1,29,18.1,C
2024,1,30,20.2,C
2024,1,31,21.0,C
2024,2,1,26.8,C
2024,2,2,27.8,C
2024,2,3,21.8,C
2024,2,4,21.2,C
2024,2,5,22.0,C
2024,2,6,21.1,C
2024,2,7,18.8,C
2024,2,8,13.2,C
2024,2,9,13.6,C
2024,2,10,18.7,C
2024,2,11,24.3,C
2024,2,12,20.1,C
2024,2,13,21.3,C
2024,2,14,26.7,C
2024,2,15,27.9,C
2024,2,16,23.8,C
2024,2,17,20.9,C
2024,2,18,26.3,C
2024,2,19,26.0,C
2024,2,20,26.8,C
2024,2,21,27.7,C
2024,2,22,26.9,C
2024,2,23,21.8,C
2024,2,24,22.7,C
2024,2,25,18.7,C
2024,2,26,21.9,C
2024,2,27,20.7,C
2024,2,28,19.2,C
2024,2,29,22.8,C
2024,3,1,14.4,C
2024,3,2,13.8,C
2024,3,3,19.0,C
2024,3,4,23.9,C
2024,3,5,26.3,C
2024,3,6,28.7,C
2024,3,7,21.5,C
2024,3,8,23.3,C
2024,3,9,19.2,C
2024,3,10,17.0,C
2024,3,11,18.1,C
2024,3,12,22.7,C
2024,3,13,20.9,C
2024,3,14,20.9,C
2024,3,15,20.9,C
2024,3,16,21.9,C
2024,3,17,28.4,C
2024,3,18,24.1,C
2024,3,19,24.3,#
2024,3,20,25.0,#
2024,3,21,23.3,#
2024,3,22,27.6,#
2024,3,23,26.7,C
2024,3,24,30.3,#
2024,3,25,29.4,#
2024,3,26,31.2,#
2024,3,27,23.9,#
2024,3,28,28.2,#
2024,3,29,29.0,#
2024,3,30,29.7,#
2024,3,31,27.9,C
"*** 沒有數據/unavailable"
"# 數據不完整/data incomplete"
"C 數據完整/data Complete"
